#timestamp,LO_Frequency,Hit,Temp,Hum 
1493881215.5,286046230.6,Y,0.0,0.0
1493881235.3,286046726.4,N,0.0,0.0
1493881255.2,286046727.0,N,0.0,0.0
1493881275.9,286046724.9,N,0.0,0.0
1493881295.7,286047096.3,N,0.0,0.0
1493881315.6,286046474.5,N,0.0,0.0
1493881335.4,286046730.8,N,0.0,0.0
1493881355.2,286046728.1,N,0.0,0.0
1493881375.0,286046726.5,N,0.0,0.0
1493881376.0,286046726.5,N,0.0,0.0
1493881395.8,286046709.7,N,0.0,0.0
1493881415.6,286046519.8,N,0.0,0.0
1493881435.4,286046728.7,N,0.0,0.0
1493881455.3,286046869.7,N,0.0,0.0
1493881475.1,286047054.8,N,0.0,0.0
1493881495.8,286047021.6,N,0.0,0.0
1493881515.7,286046980.5,N,0.0,0.0
1493881535.5,286046928.1,N,0.0,0.0
1493881555.3,286046930.4,N,0.0,0.0
1493881575.2,286046930.6,N,0.0,0.0
1493881595.9,286046995.5,N,0.0,0.0
1493881615.7,286047062.0,N,0.0,0.0
1493881635.6,286047177.0,N,0.0,0.0
1493881655.4,286047065.1,N,0.0,0.0
1493881675.2,286047123.2,N,0.0,0.0
1493881695.1,286047180.9,N,0.0,0.0
1493881696.0,286047180.9,N,0.0,0.0
1493881715.8,286047066.9,N,0.0,0.0
1493881735.5,286047069.2,N,0.0,0.0
1493881755.3,286047072.9,N,0.0,0.0
1493881775.2,286046706.6,N,0.0,0.0
1493881795.0,286047181.3,N,0.0,0.0
1493881815.2,286046706.1,N,0.0,0.0
1493881835.1,286046707.4,N,0.0,0.0
1493881836.0,286046707.4,N,0.0,0.0
1493881855.8,286046708.9,N,0.0,0.0
1493881875.6,286046604.1,N,0.0,0.0
1493881895.5,286047022.1,N,0.0,0.0
1493881915.3,286047016.2,N,0.0,0.0
1493881935.5,286046709.2,N,0.0,0.0
1493881955.4,286046709.2,N,0.0,0.0
1493881975.5,286046708.7,N,0.0,0.0
1493881995.3,286046711.6,N,0.0,0.0
1493882015.1,286046710.4,N,0.0,0.0
1493882035.9,286046710.3,N,0.0,0.0
1493882055.8,286046712.7,N,0.0,0.0
1493882075.6,286046712.0,N,0.0,0.0
1493882095.3,286046712.2,N,0.0,0.0
1493882115.1,286046712.4,N,0.0,0.0
1493882116.0,286046712.4,N,0.0,0.0
1493882135.8,286046712.7,N,0.0,0.0
1493882155.7,286046710.4,N,0.0,0.0
1493882175.5,286046710.6,N,0.0,0.0
1493882195.7,286046712.6,N,0.0,0.0
1493882215.5,286046712.5,N,0.0,0.0
1493882235.3,286046712.8,N,0.0,0.0
1493882255.1,286046710.2,N,0.0,0.0
1493882275.9,286046713.9,N,0.0,0.0
1493882295.2,286046713.8,N,0.0,0.0
1493882315.1,286046712.3,N,0.0,0.0
1493882316.0,286046712.3,N,0.0,0.0
1493882335.8,286046716.0,N,0.0,0.0
1493882355.6,286046714.4,N,0.0,0.0
1493882375.5,286046714.1,N,0.0,0.0
1493882395.3,286046712.5,N,0.0,0.0
1493882415.1,286046713.3,N,0.0,0.0
1493882435.9,286046716.1,N,0.0,0.0
1493882455.7,286046713.8,N,0.0,0.0
1493882475.5,286046714.1,N,0.0,0.0
1493882495.4,286046713.5,N,0.0,0.0
1493882515.2,286046715.5,N,0.0,0.0
1493882535.0,286046717.7,N,0.0,0.0
1493882535.9,286046717.7,N,0.0,0.0
1493882555.8,286046716.0,N,0.0,0.0
1493882575.6,286046715.8,N,0.0,0.0
1493882595.8,286046717.9,N,0.0,0.0
1493882615.6,286046716.4,N,0.0,0.0
1493882635.7,286046716.2,N,0.0,0.0
1493882655.6,286046715.4,N,0.0,0.0
1493882675.4,286046716.8,N,0.0,0.0
1493882695.2,286046717.8,N,0.0,0.0
1493882715.0,286046715.8,N,0.0,0.0
1493882716.0,286046715.8,N,0.0,0.0
1493882735.8,286046715.9,N,0.0,0.0
1493882755.6,286046715.8,N,0.0,0.0
1493882775.4,286046716.3,N,0.0,0.0
1493882795.3,286046716.2,N,0.0,0.0
1493882815.1,286046715.3,N,0.0,0.0
1493882835.8,286046717.2,N,0.0,0.0
1493882855.7,286046717.7,N,0.0,0.0
1493882875.5,286046717.8,N,0.0,0.0
1493882895.3,286046716.6,N,0.0,0.0
1493882915.2,286046719.6,N,0.0,0.0
1493882935.9,286046718.7,N,0.0,0.0
1493882955.7,286046720.6,N,0.0,0.0
1493882975.6,286046720.7,N,0.0,0.0
1493882995.4,286046718.7,N,0.0,0.0
1493883015.2,286046718.8,N,0.0,0.0
1493883035.1,286046716.6,N,0.0,0.0
1493883036.0,286046716.6,N,0.0,0.0
1493883055.8,286046716.9,N,0.0,0.0
1493883075.6,286046716.6,N,0.0,0.0
1493883095.5,286046718.4,N,0.0,0.0
1493883115.4,286046721.2,N,0.0,0.0
1493883135.2,286046719.9,N,0.0,0.0
1493883155.1,286046720.3,N,0.0,0.0
1493883156.0,286046720.3,N,0.0,0.0
1493883175.8,286046719.9,N,0.0,0.0
1493883195.6,286046720.8,N,0.0,0.0
1493883215.5,286046718.6,N,0.0,0.0
1493883235.3,286046718.4,N,0.0,0.0
1493883255.1,286046719.5,N,0.0,0.0
1493883275.9,286046718.8,N,0.0,0.0
1493883295.7,286046721.2,N,0.0,0.0
1493883315.5,286046718.6,N,0.0,0.0
1493883335.4,286046720.5,N,0.0,0.0
1493883355.4,286046721.9,N,0.0,0.0
1493883375.3,286046721.7,N,0.0,0.0
1493883395.1,286046723.8,N,0.0,0.0
1493883396.0,286046723.8,N,0.0,0.0
1493883415.8,286046721.6,N,0.0,0.0
1493883435.7,286046719.8,N,0.0,0.0
1493883455.5,286046722.8,N,0.0,0.0
1493883475.3,286046722.5,N,0.0,0.0
1493883495.1,286046720.5,N,0.0,0.0
1493883515.9,286046718.8,N,0.0,0.0
1493883535.7,286046719.3,N,0.0,0.0
1493883555.5,286046718.2,N,0.0,0.0
1493883575.4,286046718.3,N,0.0,0.0
1493883595.2,286046718.3,N,0.0,0.0
1493883615.0,286046718.6,N,0.0,0.0
1493883615.9,286046718.6,N,0.0,0.0
1493883635.8,286046721.0,N,0.0,0.0
1493883655.6,286046718.1,N,0.0,0.0
1493883675.4,286046719.9,N,0.0,0.0
1493883695.3,286046724.2,N,0.0,0.0
1493883715.1,286046721.3,N,0.0,0.0
1493883735.8,286046723.6,N,0.0,0.0
1493883755.7,286046723.2,N,0.0,0.0
1493883775.5,286046723.7,N,0.0,0.0
1493883795.3,286046722.7,N,0.0,0.0
1493883815.2,286046722.6,N,0.0,0.0
1493883835.9,286046721.4,N,0.0,0.0
1493883855.7,286046722.0,N,0.0,0.0
1493883875.6,286046722.1,N,0.0,0.0
1493883895.4,286046721.7,N,0.0,0.0
1493883915.2,286046721.7,N,0.0,0.0
1493883935.0,286046723.5,N,0.0,0.0
1493883935.9,286046723.5,N,0.0,0.0
1493883955.8,286046727.4,N,0.0,0.0
1493883975.6,286046727.3,N,0.0,0.0
1493883995.4,286046726.5,N,0.0,0.0
1493884015.3,286046727.3,N,0.0,0.0
1493884035.1,286046726.8,N,0.0,0.0
1493884055.8,286046727.4,N,0.0,0.0
1493884075.0,286046727.0,N,0.0,0.0
1493884076.0,286046727.0,N,0.0,0.0
1493884095.8,286046726.7,N,0.0,0.0
1493884115.6,286046726.4,N,0.0,0.0
1493884135.1,286046726.1,N,0.0,0.0
1493884136.0,286046726.1,N,0.0,0.0
1493884155.8,286046726.7,N,0.0,0.0
1493884175.6,286046725.0,N,0.0,0.0
1493884195.5,286046724.9,N,0.0,0.0
1493884215.3,286046727.4,N,0.0,0.0
1493884235.1,286046724.6,N,0.0,0.0
1493884255.9,286046727.2,N,0.0,0.0
1493884275.5,286046724.9,N,0.0,0.0
1493884295.3,286046722.9,N,0.0,0.0
1493884315.2,286046725.1,N,0.0,0.0
1493884335.9,286046727.1,N,0.0,0.0
1493884355.7,286046727.5,N,0.0,0.0
1493884375.5,286046724.5,N,0.0,0.0
1493884395.4,286046727.3,N,0.0,0.0
1493884415.1,286046726.6,N,0.0,0.0
1493884435.8,286046726.5,N,0.0,0.0
1493884455.4,286046726.8,N,0.0,0.0
1493884475.2,286046726.2,N,0.0,0.0
1493884495.1,286046728.2,N,0.0,0.0
1493884496.0,286046728.2,N,0.0,0.0
1493884515.8,286046727.9,N,0.0,0.0
1493884535.6,286046730.1,N,0.0,0.0
1493884555.5,286046730.7,N,0.0,0.0
1493884575.3,286046728.0,N,0.0,0.0
1493884595.1,286046727.9,N,0.0,0.0
1493884615.8,286046728.6,N,0.0,0.0
1493884635.7,286046730.6,N,0.0,0.0
1493884655.5,286046729.9,N,0.0,0.0
1493884675.3,286046727.9,N,0.0,0.0
1493884695.2,286046727.7,N,0.0,0.0
1493884715.0,286046729.9,N,0.0,0.0
1493884715.9,286046729.9,N,0.0,0.0
1493884735.7,286046729.3,N,0.0,0.0
1493884755.6,286046731.4,N,0.0,0.0
1493884775.4,286046731.8,N,0.0,0.0
1493884795.2,286046731.2,N,0.0,0.0
